FW3938 Weather Reports


time (UTC)temp
F
wind
direction
speed
knots
gust
knots
rain 1hr
in
rain 24hr
in
rain mn
in
humidity
%
barometer
mb
20260505031550 57 360 0.0 2.6 0.00 0.00 0.00 65 994.0
20260505030045 57 360 0.0 0.0 0.00 0.00 0.00 68 994.1
20260505024549 58 360 0.0 0.0 0.00 0.00 0.00 67 994.1
20260505023050 59 360 0.0 0.0 0.00 0.00 0.00 67 994.0
20260505021545 60 360 0.0 0.0 0.00 0.00 0.00 65 993.8
20260505020046 61 360 0.0 0.0 0.00 0.00 0.00 65 993.7
20260505014550 62 360 0.0 0.0 0.00 0.00 0.00 62 993.5
20260505013041 63 360 0.0 0.0 0.00 0.00 0.00 59 993.3
20260505011543 64 360 0.0 0.0 0.00 0.00 0.00 55 993.0
20260505004541 68 360 0.0 0.0 0.00 0.00 0.00 48 992.9
20260505003044 70 360 0.0 1.7 0.00 0.00 0.00 46 992.8
20260505001540 70 360 0.9 4.3 0.00 0.00 0.00 41 992.8
20260505000045 71 360 0.9 3.5 0.00 0.00 0.00 42 992.7
20260504234539 72 360 0.9 2.6 0.00 0.00 0.00 41 992.4
20260504233039 72 360 0.9 3.5 0.00 0.00 0.00 39 992.2
20260504231544 73 360 1.7 3.5 0.00 0.00 0.00 39 992.1
20260504230044 75 360 0.0 1.7 0.00 0.00 0.00 42 992.1
20260504224538 75 360 1.7 4.3 0.00 0.00 0.00 35 992.1
20260504223036 76 360 0.9 5.2 0.00 0.00 0.00 32 992.1
20260504221548 76 360 0.9 5.2 0.00 0.00 0.00 34 992.3
20260504220035 77 360 0.9 5.2 0.00 0.00 0.00 32 992.2
20260504214535 77 360 0.9 5.2 0.00 0.00 0.00 31 992.2
20260504213047 77 360 1.7 5.2 0.00 0.00 0.00 31 992.3
20260504211537 77 360 1.7 7.0 0.00 0.00 0.00 30 992.3
20260504210032 77 360 0.9 7.8 0.00 0.00 0.00 33 992.3
20260504204531 77 69 0.9 6.1 0.00 0.00 0.00 34 992.5
20260504203042 77 169 1.7 7.0 0.00 0.00 0.00 34 992.6
20260504201527 77 135 2.6 6.1 0.00 0.00 0.00 34 992.8
20260504200026 77 175 3.5 8.7 0.00 0.00 0.00 35 993.0
20260504194531 77 159 1.7 4.3 0.00 0.00 0.00 36 993.0
20260504193023 77 360 4.3 7.8 0.00 0.00 0.00 36 993.2
20260504191532 77 360 1.7 5.2 0.00 0.00 0.00 35 993.3
20260504190020 77 360 3.5 7.0 0.00 0.00 0.00 37 993.7
20260504184520 77 360 1.7 5.2 0.00 0.00 0.00 37 993.8
20260504183017 77 360 1.7 7.0 0.00 0.00 0.00 34 994.0
20260504181518 79 360 0.9 7.0 0.00 0.00 0.00 35 994.1
20260504180019 80 360 0.9 4.3 0.00 0.00 0.00 37 994.1
20260504174515 81 360 0.9 7.0 0.00 0.00 0.00 30 994.4
20260504173012 81 360 0.9 3.5 0.00 0.00 0.00 31 994.4
20260504171510 80 360 1.7 4.3 0.00 0.00 0.00 33 994.5
20260504150109 76 360 0.9 3.5 0.00 0.00 0.00 42 996.0
20260504100111 44 360 0.0 0.0 0.00 0.00 0.00 90 995.7
20260504081555 44 360 0.0 0.0 0.00 0.00 0.00 90 995.2
20260504080112 44 360 0.0 0.0 0.00 0.00 0.00 89 995.1
20260504060158 46 360 0.0 0.0 0.00 0.00 0.00 88 995.5
20260504044539 46 360 0.0 0.0 0.00 0.00 0.00 85 995.6
20260504043036 47 360 0.0 0.0 0.00 0.00 0.00 85 995.7
20260504041532 47 360 0.0 0.0 0.00 0.00 0.00 84 995.8
20260504040056 47 360 0.0 0.0 0.00 0.00 0.00 84 995.8
20260504034531 48 360 0.0 0.0 0.00 0.00 0.00 84 995.9
20260504033034 48 360 0.0 0.0 0.00 0.00 0.00 83 995.9